When you browse on this site, cookies collect data to enhance your experience and personalize the content and advertising you see.
Visit our Privacy Policy to learn more. By continuing to use the site, you agree to this use of cookies and data.
  • In Schweiz
  • Länderverzeichnis
  • Für 7 Tage
  • Wassertemperatur
  • Satellitenkarten
  • Wetterkarte
  • Widgets
  • user-avatar
    Anmelden

    Stündliche Wetter Tschachansur

    Heute, 26 April, Freitag

    Zeit Temperatur Niederschläge Wind Luftdruck Luftfeuchtigkeit
    00:00 +20°C° 0 mm 8 m/S 720 mmHg 28%
    01:00 +18°C° 0 mm 8 m/S 720 mmHg 30%
    02:00 +18°C° 0 mm 8 m/S 720 mmHg 31%
    03:00 +17°C° 0 mm 8 m/S 720 mmHg 32%
    04:00 +16°C° 0 mm 8 m/S 720 mmHg 33%
    05:00 +16°C° 0 mm 8 m/S 720 mmHg 32%
    06:00 +16°C° 0 mm 8 m/S 720 mmHg 32%
    07:00 +16°C° 0 mm 8 m/S 720 mmHg 32%
    08:00 +18°C° 0 mm 7 m/S 721 mmHg 28%
    09:00 +21°C° 0 mm 7 m/S 721 mmHg 24%
    10:00 +23°C° 0 mm 7 m/S 721 mmHg 20%
    11:00 +24°C° 0 mm 6 m/S 721 mmHg 18%
    12:00 +26°C° 0 mm 6 m/S 721 mmHg 16%
    13:00 +28°C° 0 mm 5 m/S 720 mmHg 14%
    14:00 +28°C° 0 mm 5 m/S 720 mmHg 14%
    15:00 +28°C° 0 mm 4 m/S 720 mmHg 13%
    16:00 +29°C° 0 mm 4 m/S 719 mmHg 13%
    17:00 +28°C° 0 mm 4 m/S 719 mmHg 14%
    18:00 +28°C° 0 mm 4 m/S 719 mmHg 14%
    19:00 +27°C° 0 mm 5 m/S 719 mmHg 15%
    20:00 +26°C° 0 mm 6 m/S 719 mmHg 17%
    21:00 +24°C° 0 mm 6 m/S 720 mmHg 18%
    22:00 +23°C° 0 mm 7 m/S 720 mmHg 20%
    23:00 +22°C° 0 mm 7 m/S 720 mmHg 22%

    Morgen, 27 April, Samstag

    Zeit Temperatur Niederschläge Wind Luftdruck Luftfeuchtigkeit
    00:00 +21°C° 0 mm 7 m/S 720 mmHg 25%
    01:00 +21°C° 0 mm 8 m/S 720 mmHg 28%
    02:00 +20°C° 0 mm 7 m/S 719 mmHg 30%
    03:00 +18°C° 0 mm 7 m/S 719 mmHg 31%
    04:00 +18°C° 0 mm 7 m/S 719 mmHg 33%
    05:00 +18°C° 0 mm 7 m/S 720 mmHg 33%
    06:00 +18°C° 0 mm 7 m/S 720 mmHg 32%
    07:00 +18°C° 0 mm 7 m/S 721 mmHg 32%
    08:00 +21°C° 0 mm 6 m/S 721 mmHg 28%
    09:00 +23°C° 0 mm 6 m/S 721 mmHg 24%
    10:00 +26°C° 0 mm 5 m/S 721 mmHg 20%
    11:00 +27°C° 0 mm 5 m/S 721 mmHg 18%
    12:00 +28°C° 0 mm 5 m/S 721 mmHg 16%
    13:00 +30°C° 0 mm 4 m/S 720 mmHg 14%
    14:00 +30°C° 0 mm 4 m/S 720 mmHg 13%
    15:00 +30°C° 0 mm 4 m/S 719 mmHg 13%
    16:00 +32°C° 0 mm 4 m/S 719 mmHg 12%
    17:00 +30°C° 0 mm 5 m/S 719 mmHg 13%
    18:00 +29°C° 0 mm 5 m/S 719 mmHg 14%
    19:00 +29°C° 0 mm 5 m/S 719 mmHg 15%
    20:00 +28°C° 0 mm 5 m/S 719 mmHg 16%
    21:00 +27°C° 0 mm 6 m/S 719 mmHg 18%
    22:00 +26°C° 0 mm 6 m/S 720 mmHg 19%
    23:00 +24°C° 0 mm 6 m/S 719 mmHg 21%

    übermorgen, 28 April, Sonntag

    Zeit Temperatur Niederschläge Wind Luftdruck Luftfeuchtigkeit
    00:00 +23°C° 0 mm 7 m/S 719 mmHg 23%
    01:00 +22°C° 0 mm 7 m/S 719 mmHg 25%
    02:00 +22°C° 0 mm 6 m/S 719 mmHg 27%
    03:00 +21°C° 0 mm 6 m/S 719 mmHg 29%
    04:00 +21°C° 0 mm 6 m/S 719 mmHg 30%
    05:00 +21°C° 0 mm 6 m/S 719 mmHg 30%
    06:00 +21°C° 0 mm 6 m/S 719 mmHg 30%
    07:00 +21°C° 0 mm 5 m/S 720 mmHg 30%
    08:00 +23°C° 0 mm 5 m/S 720 mmHg 26%
    09:00 +26°C° 0 mm 4 m/S 720 mmHg 22%
    10:00 +28°C° 0 mm 4 m/S 720 mmHg 18%
    11:00 +29°C° 0 mm 3 m/S 720 mmHg 16%
    12:00 +30°C° 0 mm 3 m/S 719 mmHg 15%
    13:00 +31°C° 0 mm 2 m/S 719 mmHg 13%
    14:00 +32°C° 0 mm 2 m/S 718 mmHg 12%
    15:00 +32°C° 0 mm 1 m/S 717 mmHg 11%
    16:00 +33°C° 0 mm 1 m/S 717 mmHg 11%
    17:00 +32°C° 0 mm 1 m/S 717 mmHg 12%
    18:00 +32°C° 0 mm 1 m/S 717 mmHg 12%
    19:00 +31°C° 0 mm 1 m/S 716 mmHg 13%
    20:00 +31°C° 0 mm 1 m/S 716 mmHg 14%
    21:00 +30°C° 0 mm 2 m/S 716 mmHg 14%
    22:00 +29°C° 0 mm 2 m/S 716 mmHg 15%
    23:00 +29°C° 0 mm 2 m/S 716 mmHg 15%

    29 April, Montag

    Zeit Temperatur Niederschläge Wind Luftdruck Luftfeuchtigkeit
    00:00 +28°C° 0 mm 2 m/S 715 mmHg 16%
    01:00 +27°C° 0 mm 2 m/S 715 mmHg 17%
    02:00 +27°C° 0 mm 3 m/S 715 mmHg 17%
    03:00 +26°C° 0 mm 3 m/S 714 mmHg 18%
    04:00 +25°C° 0 mm 4 m/S 714 mmHg 18%
    05:00 +26°C° 0 mm 4 m/S 714 mmHg 18%
    06:00 +27°C° 0 mm 4 m/S 715 mmHg 17%
    07:00 +27°C° 0 mm 3 m/S 715 mmHg 16%
    08:00 +28°C° 0 mm 4 m/S 715 mmHg 16%
    09:00 +29°C° 0 mm 5 m/S 715 mmHg 15%
    10:00 +32°C° 0 mm 5 m/S 716 mmHg 15%
    11:00 +33°C° 0 mm 5 m/S 715 mmHg 13%
    12:00 +34°C° 0 mm 5 m/S 715 mmHg 12%
    13:00 +35°C° 0 mm 5 m/S 715 mmHg 11%
    14:00 +35°C° 0 mm 6 m/S 714 mmHg 12%
    15:00 +35°C° 0 mm 7 m/S 714 mmHg 12%
    16:00 +35°C° 0 mm 7 m/S 714 mmHg 13%
    17:00 +34°C° 0 mm 7 m/S 714 mmHg 14%
    18:00 +33°C° 0 mm 7 m/S 715 mmHg 15%
    19:00 +32°C° 0 mm 7 m/S 715 mmHg 17%
    20:00 +30°C° 0 mm 7 m/S 715 mmHg 18%
    21:00 +29°C° 0 mm 7 m/S 716 mmHg 20%
    22:00 +28°C° 0 mm 8 m/S 716 mmHg 22%
    23:00 +27°C° 0 mm 7 m/S 716 mmHg 24%

    30 April, Dienstag

    Zeit Temperatur Niederschläge Wind Luftdruck Luftfeuchtigkeit
    00:00 +26°C° 0 mm 7 m/S 716 mmHg 25%
    01:00 +26°C° 0 mm 7 m/S 716 mmHg 27%
    02:00 +24°C° 0 mm 7 m/S 716 mmHg 28%
    03:00 +24°C° 0 mm 7 m/S 716 mmHg 29%
    04:00 +23°C° 0 mm 7 m/S 716 mmHg 30%
    05:00 +24°C° 0 mm 7 m/S 716 mmHg 27%
    06:00 +24°C° 0 mm 8 m/S 717 mmHg 24%
    07:00 +26°C° 0 mm 9 m/S 717 mmHg 22%
    08:00 +28°C° 0 mm 9 m/S 717 mmHg 19%
    09:00 +29°C° 0 mm 9 m/S 718 mmHg 16%
    10:00 +32°C° 0 mm 9 m/S 718 mmHg 12%
    11:00 +33°C° 0 mm 9 m/S 717 mmHg 12%
    12:00 +34°C° 0 mm 9 m/S 717 mmHg 11%
    13:00 +35°C° 0 mm 9 m/S 716 mmHg 10%
    14:00 +35°C° 0 mm 9 m/S 716 mmHg 9%
    15:00 +35°C° 0 mm 9 m/S 715 mmHg 9%
    16:00 +35°C° 0 mm 9 m/S 715 mmHg 8%
    17:00 +34°C° 0 mm 8 m/S 715 mmHg 9%
    18:00 +34°C° 0 mm 6 m/S 715 mmHg 9%
    19:00 +33°C° 0 mm 5 m/S 715 mmHg 10%
    20:00 +32°C° 0 mm 5 m/S 715 mmHg 11%
    21:00 +30°C° 0 mm 5 m/S 716 mmHg 13%
    22:00 +29°C° 0 mm 5 m/S 716 mmHg 14%
    23:00 +28°C° 0 mm 5 m/S 715 mmHg 16%

    1 Mai, Mittwoch

    Zeit Temperatur Niederschläge Wind Luftdruck Luftfeuchtigkeit
    00:00 +27°C° 0 mm 5 m/S 715 mmHg 18%
    01:00 +27°C° 0 mm 5 m/S 715 mmHg 20%
    02:00 +26°C° 0 mm 5 m/S 715 mmHg 21%
    03:00 +26°C° 0 mm 6 m/S 715 mmHg 22%
    04:00 +24°C° 0 mm 6 m/S 714 mmHg 23%
    05:00 +24°C° 0 mm 7 m/S 715 mmHg 22%
    06:00 +26°C° 0 mm 8 m/S 715 mmHg 20%
    07:00 +26°C° 0 mm 8 m/S 716 mmHg 19%
    08:00 +28°C° 0 mm 9 m/S 716 mmHg 16%
    09:00 +32°C° 0 mm 9 m/S 716 mmHg 13%
    10:00 +34°C° 0 mm 9 m/S 716 mmHg 10%
    11:00 +35°C° 0 mm 9 m/S 716 mmHg 9%
    12:00 +37°C° 0 mm 8 m/S 715 mmHg 9%
    13:00 +38°C° 0 mm 8 m/S 715 mmHg 8%
    14:00 +38°C° 0 mm 8 m/S 714 mmHg 8%
    15:00 +38°C° 0 mm 8 m/S 714 mmHg 8%
    16:00 +38°C° 0 mm 8 m/S 714 mmHg 8%
    17:00 +36°C° 0 mm 7 m/S 714 mmHg 8%
    18:00 +35°C° 0 mm 5 m/S 714 mmHg 9%
    19:00 +34°C° 0 mm 4 m/S 714 mmHg 10%
    20:00 +33°C° 0 mm 4 m/S 714 mmHg 11%
    21:00 +32°C° 0 mm 4 m/S 715 mmHg 12%
    22:00 +30°C° 0 mm 4 m/S 715 mmHg 14%
    23:00 +29°C° 0 mm 4 m/S 714 mmHg 15%
    Mehr zeigen